www.pogodaiklimat.ru

Погода и климат >> Архив погоды >> Канада >> St. John's


ПОГОДА в St. John's

  • Прогноз погоды в St. John's
  • Монитор погоды в St. John's
  • Климат города

АРХИВ ПОГОДЫ в St. John's

Время (UTC), дата Ветер
(напр.,м/с)
 
Видим.   Явления Облачность Т
(С)
Тd
(С)
f
(%)
Тe
(С)
Тes
(С)
Комфортность P
(гПа)
Po
(гПа)
Тmin
(С)
Tmax
(С)
R
(мм)
R24
(мм)
S
(см)
03 8.08 Ю 2 4800 м 10/10 200 м
[]
+18.2 +18.0 99 +19 +19 1011.5 998.6
06 8.08 Ю 1 9000 м {гроза, ливн. осадки} 10/3 1500 м
[Sc Ac As]
+17.5 +17.2 98 +19 +19 1011.2 998.3 +15.2 +29.0 5 201
09 8.08 СВ 1 16 км 6/0
[]
+16.8 +16.7 99 +18 +18 1011.8 998.8
12 8.08 С 3 24 км 9/1 50 м
[Frnb Ac As]
+21.2 +20.3 95 +26 +28 душно 1013.0 1000.0 +16.8 +29.0
15 8.08 СВ 2 24 км 6/6 600 м
[]
+25.7 +20.0 71 +32 +38 очень
душно
1013.1 1000.1
18 8.08 ЮВ 4 24 км 9/3 1000 м
[Cu hum Ci fib]
+27.6 +19.9 63 +34 +40 очень
душно
1012.2 999.3 +16.8 +27.9
21 8.08 Ю 5 24 км 9/9 600 м
[]
+25.7 +18.9 66 +31 +31 очень
душно
1011.6 998.6
00 9.08 С 1 24 км 9/3 1000 м
[Sc Ci fib]
+21.3 +19.5 89 +26 +26 душно 1011.8 998.8 +16.8 +28.6
03 9.08 Ю 2 1000 м н/о +18.6 +18.6 100 +20 +20 1011.8 998.9
06 9.08 ЮВ 2 800 м туман н/о +18.5 +18.5 100 +20 +20 1010.4 997.5 +16.8 +28.6
09 9.08 ЮВ 3 800 м н/о +18.4 +18.4 100 +19 +19 1008.8 995.9
12 9.08 ЮЗ 2 4800 м ливневой дождь {гроза, туман} 10/10 50 м
[Cu med, cong]
+19.7 +19.7 100 +23 +23 комфорт 1007.8 994.9 +18.0 +28.6 31
15 9.08 ЮЗ 7 4800 м 10/10 50 м
[]
+18.1 +18.1 100 +18 +18 1006.7 993.7
18 9.08 ЮЗ 5 4800 м гроза, ливневой дождь {туман} 10/10 100 м
[Cb calv]
+18.5 +18.4 99 +19 +19 1005.9 993.0 +18.0 +20.8 24
21 9.08 ЮЗ 5 400 м н/о +19.7 +19.7 100 +23 +23 комфорт 1003.8 990.9
00 10.08 Ю 5 400 м туман {гроза, ливн. осадки} н/о +18.4 +18.4 100 +19 +19 1004.6 991.7 +18.0 +20.8 6
03 10.08 Ю 3 400 м н/о +16.9 +16.9 100 +17 +17 1005.6 992.6
06 10.08 Ю 1 800 м туман н/о +16.8 +16.8 100 +18 +18 1005.3 992.3 +16.7 +20.8 151
09 10.08 Ю 1 1600 м ясно +14.2 +14.2 100 +14 +14 1006.1 993.1
12 10.08 З 2 6000 м дымка {туман} 10/0 2000 м
[Ac As]
+18.1 +18.1 100 +19 +21 1006.9 993.9 +13.9 +20.8
15 10.08 З 4 19 км 9/9 300 м
[]
+23.7 +19.3 76 +29 +30 душно 1007.2 994.3
18 10.08 СЗ 6 24 км 6/6 1000 м
[Sc]
+25.6 +16.3 56 +29 +31 душно 1007.1 994.2 +13.9 +25.8
21 10.08 СЗ 7 24 км 6/6 1500 м
[]
+24.8 +13.1 48 +27 +27 жарко 1008.7 995.7
00 11.08 СЗ 3 24 км 1/0
[Ci fib]
+19.3 +12.2 63 +21 +21 комфорт 1010.7 997.7 +13.9 +26.2
03 11.08 С 1 24 км ясно +11.1 +10.5 96 +12 +12 1013.1 1000.0
06 11.08 Ю 2 24 км ясно +10.6 +9.8 95 +9 +9 1013.6 1000.5 +8.9 +26.2 18
09 11.08 С 1 24 км 4/0
[]
+8.3 +7.9 97 +7 +7 1014.9 1001.8
12 11.08 З 2 24 км 3/0
[Ci fib]
+19.1 +13.6 70 +21 +26 комфорт 1016.7 1003.6 +7.0 +26.2
15 11.08 ЮЗ 5 24 км 6/0
[]
+24.4 +11.6 45 +26 +32 жарко 1017.0 1003.9
18 11.08 ЮЗ 7 24 км 8/1 1500 м
[Sc Ci fib]
+24.8 +12.7 47 +27 +29 жарко 1017.0 1003.9 +7.0 +25.8
21 11.08 ЮЗ 6 24 км 6/0
[]
+23.3 +12.2 50 +26 +27 жарко 1017.4 1004.2
00 12.08 Ю 2 24 км 9/0
[Ac As Ci fib]
+17.0 +12.7 76 +17 +17 1018.4 1005.3 +7.0 +25.8
03 12.08 ЮЗ 2 24 км 10/0
[]
+15.9 +12.5 80 +16 +16 1019.5 1006.4
06 12.08 С 1 24 км 10/0
[Ac As]
+15.1 +13.5 90 +16 +16 1020.0 1006.9 +7.0 +25.8 18
09 12.08 СВ 1 24 км 9/0
[]
+14.7 +13.7 94 +15 +15 1020.2 1007.1
12 12.08 штиль 0 24 км 9/0
[Ac As]
+19.0 +15.6 81 +20 +23 1021.8 1008.6 +14.4 +25.8
15 12.08 Ю 1 24 км 8/0
[]
+22.8 +14.3 59 +26 +37 жарко 1022.3 1009.2
18 12.08 Ю 5 24 км 8/1 1000 м
[Cu Sc Ac As Ci fib]
+24.1 +11.3 45 +26 +29 жарко 1022.2 1009.1 +14.4 +26.2
21 12.08 ЮЗ 4 24 км 6/0
[]
+25.1 +14.1 50 +27 +29 жарко 1021.6 1008.5
00 13.08 С 1 24 км 6/0
[Ac As Ci fib]
+17.8 +15.1 84 +19 +19 1021.7 1008.5 +14.4 +26.4
03 13.08 С 1 24 км ясно +14.8 +13.5 92 +16 +16 1022.0 1008.8
06 13.08 С 1 24 км ясно +12.4 +11.7 95 +13 +13 1021.9 1008.7 +11.9 +26.4
09 13.08 С 1 24 км 3/0
[]
+11.8 +11.0 95 +12 +12 1021.5 1008.3
12 13.08 штиль 0 24 км 6/0
[Ci fib]
+20.5 +15.3 72 +23 +28 комфорт 1021.7 1008.6 +10.7 +26.4
15 13.08 З 3 24 км 8/0
[]
+25.9 +11.8 41 +27 +34 жарко 1020.9 1007.8
18 13.08 ЮЗ 4 24 км 8/0
[Ac As Ci fib]
+27.1 +13.4 43 +29 +36 жарко 1019.3 1006.2 +10.7 +27.7
21 13.08 ЮЗ 3 24 км 8/0
[]
+26.1 +13.4 45 +28 +30 жарко 1018.4 1005.3
00 14.08 Ю 1 24 км 9/0
[Ac As Ci fib]
+20.1 +12.5 62 +23 +23 комфорт 1017.9 1004.8 +10.7 +27.7
03 14.08 штиль 0 24 км 8/0
[]
+16.1 +13.1 82 +16 +16 1017.6 1004.6
06 14.08 Ю 1 24 км 9/6 300 м
[Sc Ci fib]
+17.0 +13.5 80 +18 +18 1017.1 1004.1 +10.7 +27.7 20
09 14.08 СВ 1 24 км 10/10 600 м
[]
+17.5 +15.9 90 +19 +19 1016.5 1003.5
12 14.08 В 3 24 км 10/5 600 м
[Sc Cc]
+21.4 +18.2 82 +26 +27 душно 1015.9 1002.9 +14.8 +27.7
15 14.08 ЮВ 3 24 км 10/10 300 м
[]
+22.2 +19.6 85 +28 +28 душно 1015.5 1002.4
18 14.08 ЮВ 5 19 км в посл. час ливневой дождь 10/9 600 м
[Sc Ac As]
+23.4 +20.9 86 +31 +31 очень
душно
1013.8 1000.8 +14.8 +24.5 0.4
21 14.08 Ю 5 24 км 8/8 300 м
[]
+24.5 +21.6 84 +31 +32 очень
душно
1012.5 999.5
00 15.08 Ю 3 600 м туман н/о +19.9 +19.9 100 +24 +24 комфорт 1012.4 999.4 +15.2 +25.5

 

Местоположение метеостанции St. John's (Канада): широта 45.33 долгота -65.88 высота над уровнем моря 109 м.

В архиве по умолчанию представлена погода в St. John's за последнюю неделю. Архивные данные за месяц целиком и за предыдущие месяцы, начиная с января 2011 года, Вы можете получить, выбрав интересующий диапазон дат из раскрывающегося списка и нажав кнопку "Ввод!".


*Определитесь, кто Вы:
робот инопланетянин человек

Внимание! Время в таблицах - всемирное. Для получения местного времени необходимо прибавить поправку, которая в St. John's равна -4 ч.

Смотрите также архив погоды в соседних городах и на ближайших метеорологических станциях:

Погода в Point Lepreau Cs (Канада) (53 км)
Погода в Mechanic Settlement (Канада) (69 км)
Погода в Gagetown Airport (Канада) (70 км)
Погода в Fundy Park Cs (Канада) (79 км)
Погода в Fredericton (Канада) (79 км)
Погода в Greenwood (Канада) (85 км)
Погода в Frederickton Cda Cs (Канада) (86 км)
Погода в Grand Manan (Канада) (99 км)
Погода в Chipman Radar (Канада) (100 км)
Погода в St. Stephen (Канада) (108 км)

Пояснения к столбцам:

Ветер - указаны скорость ветра в м/с - средняя за 10 мин, порывы в срок и между сроками (в фигурных скобках) и направление, откуда дует ветер: С - северный, СВ - северо-восточный, В - восточный, ЮВ - юго-восточный, Ю - южный, ЮЗ - юго-западный, З - западный, СЗ - северо-западный.
Видимость - горизонтальная дальность видимости в метрах или километрах. При видимости от 1 до 10 км при отсутствии осадков обычно наблюдается дымка, при ухудшении видимости до 1 км и менее - туман. В сухую погоду видимость может ухудшаться дымом, пылью или мглою.
Явления - указаны атмосферные явления, наблюдавшиеся в срок или в последний час перед сроком; фигурными скобками обозначены явления, наблюдавшиеся между сроками (за 1-3 часа до срока); квадратными скобками обозначены град или гололедные отложения с указанием их диаметра в мм.
Облачность - указаны через наклонную черту общая и нижняя облачность в баллах и высота нижней границы облаков в метрах; квадратными скобками обозначены формы облаков: Ci - перистые, Cs - перисто-слоистые, Cc - перисто-кучевые, Ac - высококучевые, As - высокослоистые, Sc - слоисто-кучевые, Ns - слоисто-дождевые, Cu - кучевые, Cb - кучево-дождевые. Подробнее классификацию облаков см. в Атласе облаков (PDF).
T - Температура воздуха - температура, измеренная на высоте 2 м над землей.
Td - Температура точки росы - температура, при понижении до которой содержащийся в воздухе водяной пар достигнет насыщения.
f - Относительная влажность воздуха - влажноcть воздуха, измеренная на высоте 2 м над землей.
Te - Эффективная температура - температура, которую ощущает одетый по сезону человек в тени. Характеристика душности погоды. При расчете учитывается влияние влажности воздуха и скорости ветра на теплоощущения человека.
Tes - Эффективная температура на солнце - температура, которую ощущает человек, с поправкой на солнечный нагрев. Характеристика знойности погоды. Зависит от высоты солнца над горизонтом, облачности и скорости ветра. Ночью, в пасмурную погоду, а также при ветре 12 м/с и более поправка равна нулю.
P - Атмосферное давление - приведенное к уровню моря атмосферное давление.
Po - Атмосферное давление - измеренное на уровне метеостанции атмосферное давление.
Tmin - Минимальная температура - минимум температуры воздуха на высоте 2 м над землей.
Tmax - Максимальная температура - максимум температуры воздуха на высоте 2 м над землей.
R - Количество осадков - Количество выпавших осадков за период времени, мм. При наведении курсора мыши на число - период времени, за который выпало указанное количество осадков.
R24 - Количество осадков - Количество выпавших осадков за 24 часа, мм.
S - Снежный покров - Высота снежного покрова, см. При наведении курсора мыши на число - состояние снежного покрова и степень покрытия местности в баллах.